Location: Newark
(33.6439°N, 114.9881°W)
Time: 02:36:47
(UTC+00:00)

A-11 Canister half - Pass Details

Date: 30 August 2019
Orbit: 1527 x 1682 km, 47.3° (Epoch: 15 September)

Event Time Altitude Azimuth Distance (km) Brightness Sun altitude
Rises 19:45:33 0° 282° (WNW) 4,845 11.6 65.2°
Reaches altitude 10° 19:49:02 10° 291° (WNW) 3,880 11.2 65.2°
Maximum altitude 19:58:06 37° 356° (N) 2,384 10.3 64.9°
Drops below altitude 10° 20:07:19 10° 62° (ENE) 3,945 11.1 64.5°
Sets 20:10:54 0° 70° (ENE) 4,934 11.5 64.3°
